GW0861 Weather Reports


time (UTC)temp
C
wind
direction
speed
KPH
gust
KPH
rain 1hr
cm
rain 24hr
cm
rain mn
cm
humidity
%
barometer
mb
20260504202503 22 247 11.3 20.9 0.00 0.00 0.00 31 1005.5
20260504202223 22 231 14.5 27.4 0.00 0.00 0.00 34 1005.6
20260504201001 22 230 14.5 32.2 0.00 0.00 0.00 32 1005.8
20260504200502 22 250 14.5 41.8 0.00 0.00 0.00 34 1005.8
20260504200005 22 245 19.3 41.8 0.00 0.00 0.00 32 1005.9
20260504195502 22 255 12.9 27.4 0.00 0.00 0.00 35 1005.9
20260504195002 22 241 12.9 25.7 0.00 0.00 0.00 36 1006.0
20260504194501 21 235 12.9 35.4 0.00 0.00 0.00 35 1006.2
20260504194242 21 217 20.9 35.4 0.00 0.00 0.00 34 1006.7
20260504193505 22 228 14.5 35.4 0.00 0.00 0.00 36 1006.5
20260504193004 22 221 16.1 33.8 0.00 0.00 0.00 35 1006.6
20260504192504 21 186 14.5 35.4 0.00 0.00 0.00 35 1006.7
20260504192003 21 190 11.3 35.4 0.00 0.00 0.00 34 1006.7
20260504191501 21 188 19.3 33.8 0.00 0.00 0.00 35 1006.7
20260504191226 21 250 19.3 33.8 0.00 0.00 0.00 37 1006.8
20260504185504 21 241 12.9 30.6 0.00 0.00 0.00 38 1006.7
20260504185032 21 276 17.7 33.8 0.00 0.00 0.00 36 1006.9
20260504185020 21 241 16.1 32.2 0.00 0.00 0.00 35 1006.9
20260504184001 21 235 16.1 33.8 0.00 0.00 0.00 38 1006.9
20260504183742 20 276 12.9 37.0 0.00 0.00 0.00 39 1007.0
20260504183005 20 214 14.5 37.0 0.00 0.00 0.00 37 1007.1
20260504182504 20 241 19.3 54.7 0.00 0.00 0.00 37 1007.1
20260504182005 20 237 16.1 54.7 0.00 0.00 0.00 40 1007.0
20260504181741 20 223 27.4 48.3 0.00 0.00 0.00 39 1007.2
20260504181001 20 228 24.1 37.0 0.00 0.00 0.00 40 1007.1
20260504180956 20 244 19.3 38.6 0.00 0.00 0.00 39 1007.1
20260504180001 20 266 24.1 38.6 0.00 0.00 0.00 37 1007.2
20260504175502 20 185 17.7 48.3 0.00 0.00 0.00 40 1007.1
20260504175002 20 243 17.7 48.3 0.00 0.00 0.00 40 1007.2
20260504174502 19 264 20.9 41.8 0.00 0.00 0.00 43 1007.2
20260504174241 19 271 19.3 41.8 0.00 0.00 0.00 44 1007.4
20260504173502 18 262 16.1 43.5 0.00 0.00 0.00 45 1007.5
20260504173028 18 278 27.4 46.7 0.00 0.00 0.00 43 1007.4
20260504173017 18 286 20.9 43.5 0.00 0.00 0.00 43 1007.3
20260504172005 18 261 24.1 46.7 0.00 0.00 0.00 44 1007.5
20260504171738 18 254 19.3 43.5 0.00 0.00 0.00 46 1007.5
20260504171004 18 327 12.9 25.7 0.00 0.00 0.00 48 1007.6
20260504170742 18 241 14.5 29.0 0.00 0.00 0.00 48 1007.6
20260504151001 15 266 16.1 35.4 0.00 0.00 0.00 53 1009.0
20260504150505 15 233 14.5 30.6 0.00 0.00 0.00 54 1009.0
20260504141241 13 224 17.7 33.8 0.00 0.00 0.00 53 1009.4
20260504140501 13 226 9.7 33.8 0.00 0.00 0.00 54 1009.5
20260504130504 10 233 11.3 29.0 0.00 0.00 0.00 58 1010.1
20260504110501 6 159 6.4 16.1 0.00 0.00 0.00 63 1009.9
20260504100503 6 204 8.0 14.5 0.00 0.00 0.00 64 1009.8
20260504082000 7 209 6.4 16.1 0.00 0.00 0.00 61 1010.2
20260504081500 7 223 4.8 16.1 0.00 0.00 0.00 61 1010.2
20260504081001 7 176 6.4 11.3 0.00 0.00 0.00 61 1010.4
20260504080501 7 227 4.8 17.7 0.00 0.00 0.00 61 1010.4
20260504050502 7 193 8.0 19.3 0.00 0.00 0.00 57 1010.8
20260504050002 7 243 6.4 19.3 0.00 0.00 0.00 57 1010.9
20260504045738 8 250 9.7 14.5 0.00 0.00 0.00 57 1010.9
20260504045000 8 252 8.0 16.1 0.00 0.00 0.00 57 1010.9
20260504044500 8 217 6.4 19.3 0.00 0.00 0.00 57 1010.9
20260504044242 8 235 9.7 19.3 0.00 0.00 0.00 56 1010.9
20260504043500 8 251 9.7 19.3 0.00 0.00 0.00 56 1010.9
20260504043000 8 241 11.3 19.3 0.00 0.00 0.00 56 1011.0
20260504042502 8 258 9.7 16.1 0.00 0.00 0.00 56 1010.9
20260504042001 8 235 9.7 17.7 0.00 0.00 0.00 56 1010.9
20260504041501 8 266 9.7 17.7 0.00 0.00 0.00 55 1010.8
20260504040959 8 252 9.7 19.3 0.00 0.00 0.00 55 1010.9
20260504040500 8 238 9.7 19.3 0.00 0.00 0.00 55 1010.9
20260504040001 8 219 9.7 16.1 0.00 0.00 0.00 55 1011.0
20260504035500 8 241 9.7 17.7 0.00 0.00 0.00 54 1010.9
20260504035000 8 226 9.7 17.7 0.00 0.00 0.00 54 1010.9
20260504034500 8 230 9.7 16.1 0.00 0.00 0.00 54 1010.9
20260504034001 8 259 6.4 19.3 0.00 0.00 0.00 54 1010.9
20260504033500 8 231 11.3 20.9 0.00 0.00 0.00 54 1010.9
20260504033000 8 269 8.0 20.9 0.00 0.00 0.00 54 1010.9
20260504032738 8 237 8.0 16.1 0.00 0.00 0.00 54 1010.8
20260504032000 8 254 9.7 17.7 0.00 0.00 0.00 53 1010.9
20260504031500 8 265 9.7 17.7 0.00 0.00 0.00 53 1011.0
20260504031000 8 238 8.0 14.5 0.00 0.00 0.00 53 1011.0
20260504030501 8 238 8.0 16.1 0.00 0.00 0.00 52 1011.1
20260504030239 8 237 6.4 16.1 0.00 0.00 0.00 52 1011.0
20260504025459 8 254 8.0 14.5 0.00 0.00 0.00 52 1011.0
20260504025000 9 264 4.8 11.3 0.00 0.00 0.00 51 1011.1
20260504024500 9 223 6.4 14.5 0.00 0.00 0.00 51 1011.1
20260504024002 9 282 6.4 14.5 0.00 0.00 0.00 51 1011.0
20260504023500 9 244 4.8 14.5 0.00 0.00 0.00 50 1011.2
20260504023000 9 243 6.4 11.3 0.00 0.00 0.00 51 1011.1
20260504022500 9 235 6.4 11.3 0.00 0.00 0.00 50 1011.2
20260504022000 9 258 6.4 14.5 0.00 0.00 0.00 50 1011.1
20260504021500 9 282 8.0 14.5 0.00 0.00 0.00 50 1011.2
20260504021000 10 288 9.7 14.5 0.00 0.00 0.00 50 1011.1
20260504020501 10 265 8.0 19.3 0.00 0.00 0.00 49 1011.1
20260504020002 10 259 9.7 19.3 0.00 0.00 0.00 49 1011.1
20260504015500 10 227 9.7 17.7 0.00 0.00 0.00 49 1011.0
20260504015001 10 299 8.0 14.5 0.00 0.00 0.00 49 1011.0
20260504014459 10 281 8.0 16.1 0.00 0.00 0.00 48 1011.0
20260504014024 10 261 6.4 11.3 0.00 0.00 0.00 48 1010.8
20260504014013 10 252 8.0 16.1 0.00 0.00 0.00 48 1011.0
20260504013000 10 244 8.0 11.3 0.00 0.00 0.00 48 1010.8
20260504012742 10 248 4.8 11.3 0.00 0.00 0.00 48 1010.8
20260504012000 10 248 6.4 16.1 0.00 0.00 0.00 48 1010.8
20260504011500 10 295 8.0 16.1 0.00 0.00 0.00 48 1010.8
20260504011240 10 261 8.0 16.1 0.00 0.00 0.00 47 1010.7
20260504010739 10 250 8.0 19.3 0.00 0.00 0.00 47 1010.7
20260504010000 10 279 8.0 19.3 0.00 0.00 0.00 47 1010.7
20260504005740 10 276 9.7 19.3 0.00 0.00 0.00 47 1010.6
20260504005026 10 251 9.7 20.9 0.00 0.00 0.00 46 1010.6
20260504005015 10 275 11.3 19.3 0.00 0.00 0.00 47 1010.6
20260504004000 11 289 11.3 20.9 0.00 0.00 0.00 47 1010.7
20260504003500 11 259 12.9 19.3 0.00 0.00 0.00 46 1010.6
20260504003003 11 266 9.7 20.9 0.00 0.00 0.00 46 1010.6
20260504002459 11 247 12.9 20.9 0.00 0.00 0.00 46 1010.6
20260504002000 11 261 8.0 16.1 0.00 0.00 0.00 46 1010.6
20260504001500 11 265 8.0 17.7 0.00 0.00 0.00 46 1010.6
20260504001000 11 268 8.0 17.7 0.00 0.00 0.00 46 1010.4
20260504000459 11 230 11.3 17.7 0.00 0.00 0.00 45 1010.5
20260503235959 11 285 9.7 20.9 0.00 0.00 0.00 45 1010.5
20260503235740 11 251 11.3 20.9 0.00 0.00 0.00 45 1010.4
20260503235000 11 265 14.5 27.4 0.00 0.00 0.00 44 1010.4
20260503234459 11 252 14.5 27.4 0.00 0.00 0.00 44 1010.4
20260503234000 11 240 14.5 24.1 0.00 0.00 0.00 44 1010.2
20260503233500 11 250 14.5 24.1 0.00 0.00 0.00 44 1010.2
20260503233000 11 243 12.9 24.1 0.00 0.00 0.00 44 1010.2
20260503232500 11 254 9.7 24.1 0.00 0.00 0.00 43 1010.1
20260503232000 12 268 9.7 19.3 0.00 0.00 0.00 43 1010.1
20260503231459 12 292 11.3 22.5 0.00 0.00 0.00 44 1010.1
20260503231000 12 272 14.5 30.6 0.00 0.00 0.00 42 1010.0
20260503230949 12 268 16.1 32.2 0.00 0.00 0.00 43 1010.0
20260503230001 12 317 20.9 37.0 0.00 0.00 0.00 43 1009.8
20260503225500 12 299 24.1 45.1 0.00 0.00 0.00 42 1009.9
20260503225000 12 264 20.9 45.1 0.00 0.00 0.00 44 1010.0
20260503224500 11 283 16.1 29.0 0.00 0.00 0.00 44 1010.0
20260503224000 11 281 19.3 29.0 0.00 0.00 0.00 43 1009.9
20260503223501 11 275 16.1 29.0 0.00 0.00 0.00 45 1009.8
20260503223240 11 281 16.1 29.0 0.00 0.00 0.00 46 1009.9
20260503222459 11 275 19.3 37.0 0.00 0.00 0.00 45 1009.9
20260503221959 11 275 16.1 37.0 0.00 0.00 0.00 45 1010.0
20260503221500 11 259 22.5 37.0 0.00 0.00 0.00 45 1009.8
20260503220959 11 269 16.1 37.0 0.00 0.00 0.00 44 1010.0
20260503220500 11 285 22.5 37.0 0.00 0.00 0.00 45 1009.9
20260503215959 11 241 19.3 35.4 0.00 0.00 0.00 45 1010.0
20260503215758 11 248 20.9 32.2 0.00 0.00 0.00 44 1010.0
20260503215753 11 272 17.7 35.4 0.00 0.00 0.00 45 1010.0
20260503214741 11 255 19.3 32.2 0.00 0.00 0.00 45 1010.0
20260503214000 11 302 17.7 30.6 0.00 0.00 0.00 45 1010.0
20260503213459 11 279 19.3 30.6 0.00 0.00 0.00 45 1010.0
20260503212959 11 286 19.3 35.4 0.00 0.00 0.00 45 1010.0
20260503212501 11 245 25.7 35.4 0.00 0.00 0.00 44 1009.9
20260503211959 11 283 20.9 32.2 0.00 0.00 0.00 44 1009.9
20260503211459 11 279 19.3 33.8 0.00 0.00 0.00 45 1009.9
20260503210959 11 275 19.3 43.5 0.00 0.00 0.00 46 1009.9
20260503210459 11 296 24.1 43.5 0.00 0.00 0.00 44 1009.8
20260503210448 11 259 19.3 33.8 0.00 0.00 0.00 46 1009.9
20260503205739 12 293 20.9 37.0 0.00 0.00 0.00 45 1010.0
20260503205000 12 279 19.3 37.0 0.00 0.00 0.00 45 1009.9
20260503204459 12 281 22.5 38.6 0.00 0.00 0.00 45 1010.0
20260503203959 11 243 19.3 45.1 0.00 0.00 0.00 46 1010.1
20260503203738 11 296 22.5 45.1 0.00 0.00 0.00 46 1010.0
20260503203225 11 288 22.5 35.4 0.00 0.00 0.00 47 1010.2